589  
ASUS46 KEKA 280914  
RWREKA  
EUREKA AREA WEATHER ROUNDUP  
NATIONAL WEATHER SERVICE EUREKA CA  
200 AM PDT FRI APR 28 2017  
 
NOTE: "FAIR" INDICATES FEW OR NO CLOUDS BELOW 12,000 FEET WITH NO  
SIGNIFICANT WEATHER AND/OR S TO VISIBILITY
.  
 
SOUTHWEST OREGON...  
 
CITY SKY/WX TMP DP RH WIND PRES REMARKS
 
MEDFORD CLOUDY 46 37 71 N6 30.24R  
KLAMATH FALLS CLEAR 30 25 81 CALM 30.13R  
NORTH BEND CLEAR 43 43 100 S3 30.32R  
ROSEBURG CLOUDY 43 40 89 CALM 30.28S  
SEXTON SUMMIT PTCLDY 30 29 96 N10 30.18R  
BROOKINGS CLEAR 48 34 58 NE6 30.24S  
 
NORTHWEST CALIFORNIA...  
 
CITY SKY/WX TMP DP RH WIND PRES REMARKS
 
CRESCENT CITY CLEAR 45 40 82 N5 30.23S  
MCKINLEYVILLE PTCLDY 43 42 97 E5 30.21S  
EUREKA PTCLDY 50 32 50 NE7 30.22F  
FORTUNA MOCLDY 46 45 93 N5 30.22S  
WEAVERVILLE N/A 36 32 87 CALM 30.12S  
TRINITY CENTER N/A 45 30 57 N5 30.11S  
UKIAH CLEAR 46 40 79 CALM 30.11R  
 
NORTH & CENTRAL CALIFORNIA...  
 
CITY SKY/WX TMP DP RH WIND PRES REMARKS
 
YREKA CLEAR 33 30 88 N8 30.19R  
MOUNT SHASTA CLEAR 39 28 64 VRB6 30.12R  
REDDING CLEAR 50 37 61 NW6 30.07R  
RED BLUFF CLEAR 54 37 52 NW9 30.06R  
CHICO N/A 50 39 66 NW9 30.03S  
YUBA CITY CLEAR 56 40 55 N16 29.99R  
SACRAMENTO CLEAR 59 41 51 NW13 29.98S  
SANTA ROSA CLEAR 51 41 68 N9 30.04R  
NAPA CLEAR 50 43 77 CALM 30.02S  
SAN FRANCISCO CLEAR 52 45 77 W17 30.04S  
OAKLAND PTCLDY 56 44 64 N3 30.03S  
SALINAS CLEAR 53 45 74 SW13 30.02F  
MONTEREY MOCLDY 52 47 83 SW8 30.04F  
 

 
 
 
CLICK HERE TO GO TO PREVIOUS BULLETINS.

The Nexlab CA Page Main Text Page